• în România
  • Lista ţărilor
  • Pe 7 zile
  • Temperatura apei
  • Hartă satelitară
  • Meteo pe hartă
  • Widget-uri
  • user-avatar
    Intrare

    Meteo pe oră la Hasselt

    Astăzi, 21 Octombrie, Sâmbătă

    Timp Temperatura Precipitaţii Vânt Presiune Umiditate
    00:00 +10°C° 0 mm 4 m/s 756 mmHg 81%
    01:00 +10°C° 0 mm 4 m/s 756 mmHg 80%
    02:00 +11°C° 0 mm 4 m/s 756 mmHg 78%
    03:00 +11°C° 0 mm 4 m/s 755 mmHg 77%
    04:00 +10°C° 0 mm 5 m/s 755 mmHg 80%
    05:00 +12°C° 0 mm 5 m/s 755 mmHg 82%
    06:00 +12°C° 0 mm 5 m/s 754 mmHg 84%
    07:00 +13°C° 1,1 mm 6 m/s 754 mmHg 86%
    08:00 +14°C° 1,1 mm 6 m/s 754 mmHg 88%
    09:00 +14°C° 1,1 mm 6 m/s 754 mmHg 90%
    10:00 +15°C° 0,2 mm 6 m/s 754 mmHg 87%
    11:00 +15°C° 0,2 mm 6 m/s 754 mmHg 84%
    12:00 +15°C° 0,2 mm 6 m/s 755 mmHg 82%
    13:00 +15°C° 0 mm 6 m/s 755 mmHg 78%
    14:00 +15°C° 0 mm 6 m/s 755 mmHg 74%
    15:00 +14°C° 0 mm 6 m/s 755 mmHg 71%
    16:00 +14°C° 0 mm 5 m/s 755 mmHg 72%
    17:00 +13°C° 0 mm 5 m/s 755 mmHg 73%
    18:00 +12°C° 0 mm 5 m/s 755 mmHg 75%
    19:00 +12°C° 0 mm 5 m/s 755 mmHg 74%
    20:00 +10°C° 0 mm 6 m/s 755 mmHg 72%
    21:00 +10°C° 0 mm 6 m/s 755 mmHg 71%
    22:00 +10°C° 0 mm 7 m/s 755 mmHg 71%
    23:00 +10°C° 0 mm 7 m/s 755 mmHg 71%

    Mâine, 22 Octombrie, Duminică

    Timp Temperatura Precipitaţii Vânt Presiune Umiditate
    00:00 +10°C° 0 mm 8 m/s 755 mmHg 71%
    01:00 +10°C° 0,1 mm 8 m/s 755 mmHg 72%
    02:00 +10°C° 0,1 mm 8 m/s 755 mmHg 73%
    03:00 +10°C° 0,1 mm 8 m/s 755 mmHg 74%
    04:00 +9°C° 0,1 mm 8 m/s 755 mmHg 75%
    05:00 +9°C° 0,1 mm 8 m/s 755 mmHg 76%
    06:00 +9°C° 0,1 mm 8 m/s 755 mmHg 78%
    07:00 +9°C° 0,1 mm 8 m/s 755 mmHg 78%
    08:00 +10°C° 0,1 mm 8 m/s 755 mmHg 78%
    09:00 +10°C° 0,1 mm 8 m/s 756 mmHg 78%
    10:00 +10°C° 0,2 mm 8 m/s 756 mmHg 77%
    11:00 +10°C° 0,2 mm 7 m/s 756 mmHg 75%
    12:00 +11°C° 0,2 mm 7 m/s 756 mmHg 74%
    13:00 +11°C° 0,2 mm 7 m/s 756 mmHg 74%
    14:00 +11°C° 0,2 mm 7 m/s 756 mmHg 73%
    15:00 +10°C° 0,2 mm 6 m/s 756 mmHg 73%
    16:00 +10°C° 0,1 mm 6 m/s 757 mmHg 75%
    17:00 +9°C° 0,1 mm 5 m/s 757 mmHg 78%
    18:00 +9°C° 0,1 mm 5 m/s 757 mmHg 80%
    19:00 +9°C° 0 mm 5 m/s 758 mmHg 80%
    20:00 +9°C° 0 mm 5 m/s 758 mmHg 79%
    21:00 +9°C° 0 mm 5 m/s 758 mmHg 79%
    22:00 +9°C° 0,2 mm 5 m/s 759 mmHg 80%
    23:00 +9°C° 0,2 mm 5 m/s 759 mmHg 82%

    Poimâine, 23 Octombrie, Luni

    Timp Temperatura Precipitaţii Vânt Presiune Umiditate
    00:00 +9°C° 0,2 mm 5 m/s 759 mmHg 84%
    01:00 +9°C° 0,2 mm 5 m/s 759 mmHg 84%
    02:00 +9°C° 0,2 mm 5 m/s 759 mmHg 85%
    03:00 +8°C° 0,2 mm 5 m/s 760 mmHg 86%
    04:00 +8°C° 0,2 mm 5 m/s 760 mmHg 87%
    05:00 +8°C° 0,2 mm 5 m/s 760 mmHg 88%
    06:00 +8°C° 0,2 mm 4 m/s 760 mmHg 89%
    07:00 +10°C° 0,1 mm 4 m/s 760 mmHg 88%
    08:00 +11°C° 0,1 mm 4 m/s 760 mmHg 87%
    09:00 +12°C° 0,1 mm 4 m/s 761 mmHg 85%
    10:00 +12°C° 0,1 mm 4 m/s 761 mmHg 85%
    11:00 +12°C° 0,1 mm 4 m/s 761 mmHg 84%
    12:00 +13°C° 0,1 mm 4 m/s 761 mmHg 84%
    13:00 +12°C° 0,3 mm 4 m/s 761 mmHg 86%
    14:00 +12°C° 0,3 mm 4 m/s 761 mmHg 88%
    15:00 +12°C° 0,3 mm 4 m/s 761 mmHg 90%
    16:00 +11°C° 1,4 mm 4 m/s 761 mmHg 91%
    17:00 +11°C° 1,4 mm 4 m/s 761 mmHg 92%
    18:00 +11°C° 1,4 mm 3 m/s 761 mmHg 93%
    19:00 +11°C° 0,7 mm 3 m/s 761 mmHg 94%
    20:00 +12°C° 0,7 mm 3 m/s 761 mmHg 94%
    21:00 +12°C° 0,7 mm 3 m/s 761 mmHg 95%
    22:00 +12°C° 0,2 mm 3 m/s 761 mmHg 95%
    23:00 +13°C° 0,2 mm 3 m/s 761 mmHg 96%

    24 Octombrie, Marţi

    Timp Temperatura Precipitaţii Vânt Presiune Umiditate
    00:00 +13°C° 0,2 mm 3 m/s 761 mmHg 96%
    01:00 +13°C° 0,1 mm 3 m/s 762 mmHg 97%
    02:00 +13°C° 0,1 mm 3 m/s 762 mmHg 97%
    03:00 +14°C° 0,1 mm 2 m/s 762 mmHg 97%
    04:00 +14°C° 0,1 mm 2 m/s 762 mmHg 97%
    05:00 +14°C° 0,1 mm 2 m/s 762 mmHg 97%
    06:00 +14°C° 0,1 mm 2 m/s 762 mmHg 97%
    07:00 +14°C° 0 mm 3 m/s 763 mmHg 95%
    08:00 +14°C° 0 mm 3 m/s 763 mmHg 93%
    09:00 +16°C° 0 mm 3 m/s 763 mmHg 91%
    10:00 +16°C° 0,1 mm 3 m/s 763 mmHg 91%
    11:00 +15°C° 0,1 mm 4 m/s 763 mmHg 91%
    12:00 +15°C° 0,1 mm 4 m/s 763 mmHg 90%
    13:00 +15°C° 0,2 mm 4 m/s 763 mmHg 91%
    14:00 +16°C° 0,2 mm 3 m/s 763 mmHg 92%
    15:00 +16°C° 0,2 mm 3 m/s 763 mmHg 93%
    16:00 +16°C° 0 mm 3 m/s 763 mmHg 94%
    17:00 +16°C° 0 mm 3 m/s 764 mmHg 94%
    18:00 +16°C° 0 mm 3 m/s 764 mmHg 95%
    19:00 +16°C° 0 mm 3 m/s 764 mmHg 95%
    20:00 +16°C° 0 mm 3 m/s 764 mmHg 95%
    21:00 +16°C° 0 mm 3 m/s 764 mmHg 95%
    22:00 +16°C° 0 mm 3 m/s 764 mmHg 95%
    23:00 +16°C° 0 mm 3 m/s 764 mmHg 95%

    25 Octombrie, Miercuri

    Timp Temperatura Precipitaţii Vânt Presiune Umiditate
    00:00 +16°C° 0 mm 3 m/s 764 mmHg 95%
    01:00 +14°C° 0 mm 3 m/s 764 mmHg 95%
    02:00 +14°C° 0 mm 3 m/s 764 mmHg 95%
    03:00 +14°C° 0 mm 3 m/s 764 mmHg 95%
    04:00 +14°C° 0 mm 3 m/s 764 mmHg 96%
    05:00 +13°C° 0 mm 3 m/s 764 mmHg 96%
    06:00 +13°C° 0 mm 3 m/s 764 mmHg 96%
    07:00 +14°C° 0 mm 3 m/s 764 mmHg 93%
    08:00 +16°C° 0 mm 3 m/s 765 mmHg 91%
    09:00 +17°C° 0 mm 3 m/s 765 mmHg 88%
    10:00 +18°C° 0 mm 3 m/s 765 mmHg 84%
    11:00 +19°C° 0 mm 3 m/s 765 mmHg 80%
    12:00 +20°C° 0 mm 3 m/s 764 mmHg 77%
    13:00 +20°C° 0 mm 2 m/s 764 mmHg 78%
    14:00 +20°C° 0 mm 2 m/s 764 mmHg 78%
    15:00 +20°C° 0 mm 2 m/s 764 mmHg 79%
    16:00 +20°C° 0 mm 1 m/s 764 mmHg 83%
    17:00 +19°C° 0 mm 1 m/s 764 mmHg 87%
    18:00 +18°C° 0 mm 1 m/s 764 mmHg 91%
    19:00 +16°C° 0 mm 1 m/s 764 mmHg 92%
    20:00 +16°C° 0 mm 1 m/s 764 mmHg 92%
    21:00 +16°C° 0 mm 1 m/s 765 mmHg 93%
    22:00 +15°C° 0 mm 1 m/s 764 mmHg 92%
    23:00 +15°C° 0 mm 2 m/s 764 mmHg 92%

    26 Octombrie, Joi

    Timp Temperatura Precipitaţii Vânt Presiune Umiditate
    00:00 +15°C° 0 mm 2 m/s 764 mmHg 92%
    01:00 +15°C° 0 mm 2 m/s 764 mmHg 92%
    02:00 +15°C° 0 mm 2 m/s 764 mmHg 91%
    03:00 +15°C° 0 mm 2 m/s 764 mmHg 91%
    04:00 +14°C° 0 mm 2 m/s 764 mmHg 90%
    05:00 +14°C° 0 mm 2 m/s 764 mmHg 89%
    06:00 +14°C° 0 mm 2 m/s 764 mmHg 88%
    07:00 +15°C° 0 mm 2 m/s 764 mmHg 83%
    08:00 +17°C° 0 mm 2 m/s 764 mmHg 78%
    09:00 +18°C° 0 mm 2 m/s 765 mmHg 72%
    10:00 +19°C° 0 mm 2 m/s 764 mmHg 68%
    11:00 +20°C° 0 mm 2 m/s 764 mmHg 64%
    12:00 +23°C° 0 mm 2 m/s 764 mmHg 60%
    13:00 +23°C° 0 mm 2 m/s 764 mmHg 63%
    14:00 +21°C° 0 mm 2 m/s 764 mmHg 65%
    15:00 +21°C° 0 mm 2 m/s 764 mmHg 68%
    16:00 +20°C° 0 mm 2 m/s 764 mmHg 73%
    17:00 +18°C° 0 mm 2 m/s 764 mmHg 78%
    18:00 +17°C° 0 mm 2 m/s 764 mmHg 83%
    19:00 +16°C° 0 mm 2 m/s 764 mmHg 84%
    20:00 +15°C° 0 mm 2 m/s 764 mmHg 85%
    21:00 +15°C° 0 mm 2 m/s 764 mmHg 85%
    22:00 +14°C° 0 mm 2 m/s 764 mmHg 86%
    23:00 +14°C° 0 mm 2 m/s 764 mmHg 86%
    Arată mai mult